Temp
18 19 19 19 19 19 19 20 20 19 19 20 20 19 19 20 20 19 20 21 21 21 22 23 22 23 23 23 22 21 21 21 21 20 20 21 21 20 19 19 19 20 21 21 19 18 18 18 18 18 17 17 17 17 17 17 17 16 16 16 15 16 16 16 16 16 16 16 16 16 16 16 16 16 16 16 16 16 16 16 16 16 16 17 16 17
18 19 19 19 19 19 19 19 19 18 18 19 20 20 20 19 19 20 20 21 20 20 22 22 21 23 23 23 22 21 21 21 21 20 20 21 21 20 20 19 19 19 20 20 20 19 19 18 18 17 17 17 17 17 17 17 17 16 16 16 15 15 15 16 16 16 16 16 16 16 16 16 16 16 16 16 16 16 16 16 16 16 16 17 16 16
18 19 18 18 18 18 18 17 17 18 18 19 19 19 20 19 19 20 19 19 19 21 22 21 21 23 24 23 21 21 21 21 21 21 21 21 22 21 20 19 19 19 19 19 19 19 19 19 18 18 17 17 17 17 17 17 16 16 16 16 15 15 15 16 16 16 16 16 16 16 16 16 16 16 16 16 16 16 16 17 16 16 17 16 16 16
18 19 18 17 17 18 18 16 17 18 18 18 19 19 20 19 19 20 20 19 19 20 21 21 21 22 23 22 20 21 21 22 22 22 22 22 22 22 21 20 19 19 19 19 19 19 19 19 18 17 17 17 17 17 17 17 16 16 16 16 15 15 16 16 16 16 16 16 16 16 16 16 16 16 16 16 16 16 16 16 16 16 16 16 16 16
19 18 17 16 17 19 18 17 17 18 19 18 18 19 20 19 19 20 20 19 20 19 19 20 20 21 22 22 21 21 20 20 21 21 21 22 22 22 21 20 19 19 19 19 19 18 18 18 18 17 17 17 17 17 17 17 16 16 16 16 16 15 15 15 16 16 16 16 16 16 16 16 16 16 16 16 16 16 16 16 16 16 16 16 16 16
19 18 17 17 17 18 18 17 17 18 19 18 18 19 19 20 20 19 19 19 20 20 19 19 20 21 21 22 22 20 19 20 20 20 21 21 21 21 21 20 20 19 19 19 19 19 18 18 18 17 17 17 16 16 17 17 16 16 16 16 16 15 15 15 16 16 16 16 16 16 16 16 16 17 17 16 16 16 16 16 16 15 15 15 16 16
18 17 17 18 17 17 18 18 18 18 19 19 19 19 19 20 19 18 19 19 20 20 19 18 20 21 21 22 22 19 18 19 20 19 20 21 21 21 21 20 20 20 19 20 19 19 18 18 18 17 17 17 16 16 16 16 16 16 16 16 15 15 15 15 15 16 16 16 16 17 17 17 17 17 17 17 16 16 16 16 16 16 16 16 16 16
18 17 17 18 18 18 18 19 18 18 19 20 19 19 18 19 19 18 19 20 20 20 19 18 20 20 20 22 21 18 18 19 19 20 20 21 21 21 22 21 21 21 20 20 20 19 18 18 18 17 17 16 16 16 16 16 16 16 16 16 15 15 15 15 15 16 16 16 16 17 17 17 17 17 17 17 17 16 16 16 16 16 16 16 16 16
18 18 18 18 18 18 19 20 18 18 20 20 19 18 18 19 19 19 19 20 19 19 20 20 20 20 20 21 20 18 19 20 20 20 20 20 21 21 21 21 21 21 21 20 20 19 18 18 18 17 16 16 16 16 16 16 16 16 16 16 15 15 15 15 16 16 17 17 17 17 17 17 17 17 17 17 17 17 16 16 16 16 16 16 16 16
18 18 18 19 19 19 20 20 18 18 20 20 18 17 18 18 18 19 19 20 19 19 20 20 20 20 20 22 21 19 20 21 20 20 20 20 21 21 21 21 21 21 21 20 20 19 18 18 18 17 16 15 15 16 16 16 16 16 16 16 15 15 15 15 16 17 17 17 18 18 17 17 17 17 17 17 17 17 17 17 17 16 16 16 16 16
18 18 18 19 20 20 20 18 17 19 20 19 18 19 19 18 18 18 18 19 19 19 20 20 20 20 20 21 22 21 20 20 20 20 20 20 20 21 21 21 21 21 20 20 19 18 18 17 16 16 15 15 15 15 15 16 16 16 16 16 15 15 15 15 15 16 17 17 17 18 17 18 18 17 17 17 17 17 17 17 17 16 16 16 16 16
18 18 18 20 20 19 20 19 17 18 19 19 20 20 20 19 19 19 19 19 19 20 20 18 19 20 20 21 22 20 18 18 18 19 19 20 20 21 21 21 21 20 19 19 18 17 16 16 15 15 15 15 15 15 15 15 15 15 15 15 15 15 15 15 15 16 16 16 17 17 17 18 18 17 17 17 17 17 17 17 17 16 16 16 16 16
18 19 19 20 20 19 20 20 18 17 18 19 19 20 20 20 19 19 20 19 20 20 19 17 18 19 20 21 20 19 18 18 18 18 19 19 20 21 21 20 20 20 19 18 17 16 16 16 16 16 15 15 15 15 15 15 15 15 15 15 15 14 15 15 15 15 15 16 17 17 18 18 18 18 18 17 17 17 17 17 17 16 16 16 16 17
19 19 18 19 20 20 20 20 20 19 18 19 19 20 20 20 19 19 19 18 19 20 18 17 18 20 21 21 19 18 19 19 19 19 18 18 19 21 20 20 19 19 18 17 17 17 17 18 17 15 15 15 15 15 15 15 15 15 15 15 15 14 14 14 14 14 14 16 17 17 18 18 18 18 18 18 17 17 17 17 17 17 17 17 17 17
18 19 19 19 20 20 20 21 21 20 18 19 20 20 20 20 20 19 20 20 20 20 19 18 19 20 21 20 18 18 19 19 19 19 18 18 19 20 19 19 18 18 17 17 17 18 18 18 17 15 15 14 14 15 15 15 15 15 15 15 15 14 14 14 14 13 14 15 17 17 18 18 18 18 18 18 17 17 17 17 17 17 17 17 17 17
17 19 20 20 18 19 21 21 21 20 19 18 19 20 20 21 21 19 18 18 19 20 19 19 19 20 20 19 18 19 19 19 20 19 18 19 19 19 18 18 18 17 17 17 17 17 17 17 17 15 14 14 15 16 15 15 15 14 15 15 14 14 14 14 15 15 15 16 16 17 18 18 18 18 18 18 17 17 17 17 17 17 17 17 17 17
18 19 20 19 19 19 20 21 20 21 21 18 18 20 19 20 21 19 17 16 17 19 19 18 19 20 20 19 19 19 19 18 18 18 17 17 18 17 17 17 17 16 16 16 16 16 16 16 16 15 14 15 16 15 15 14 14 15 15 15 14 14 15 15 16 16 17 17 16 17 18 18 18 18 18 18 17 17 17 17 17 17 17 17 17 17
18 20 20 19 20 20 18 19 20 20 20 19 20 21 19 19 20 20 19 18 18 20 19 18 18 19 20 20 19 19 18 17 16 17 16 16 16 16 15 15 15 14 14 14 15 16 16 16 16 14 14 16 16 15 14 15 15 15 15 15 14 14 15 16 16 16 17 17 16 17 18 18 18 18 18 18 17 17 17 17 17 17 17 17 17 17
17 19 20 18 20 19 17 19 20 19 19 20 20 21 20 20 20 20 19 19 19 19 19 18 18 18 20 19 17 17 17 16 16 16 16 16 15 15 15 15 15 14 14 15 15 15 15 15 15 15 15 15 15 15 15 15 15 14 15 15 15 15 15 16 16 16 17 17 17 17 18 18 18 18 18 18 18 17 17 17 17 17 17 17 17 16
17 19 20 18 18 19 19 20 21 20 19 19 20 20 20 20 20 20 19 20 20 19 19 19 19 19 19 16 15 16 16 16 16 15 15 15 15 16 15 15 15 15 15 15 15 15 15 15 15 15 15 15 15 15 15 14 14 14 15 16 15 15 15 15 16 16 17 17 18 18 18 18 18 18 18 18 18 17 17 17 17 17 17 17 16 16
17 18 19 19 19 19 20 20 20 20 20 20 20 20 20 19 19 20 19 19 20 20 19 19 20 20 17 14 15 16 15 16 16 15 15 15 15 15 15 15 15 15 15 15 15 15 15 15 15 15 15 15 15 14 14 14 14 15 15 15 15 15 15 15 15 17 17 18 18 17 17 17 17 18 18 18 18 17 17 17 17 17 17 16 16 16
18 18 18 19 20 20 20 18 17 18 19 19 20 21 20 19 19 20 19 18 18 19 19 19 21 19 15 14 15 15 15 16 16 15 15 15 15 15 15 15 15 15 15 15 15 15 15 15 15 15 15 15 14 14 14 14 14 15 15 15 14 15 15 15 16 17 17 17 17 17 17 18 18 18 18 18 18 17 17 17 17 17 17 16 16 16
17 18 18 19 19 19 19 17 16 16 16 17 18 18 19 20 20 21 21 19 18 18 17 18 20 18 14 14 16 15 15 16 15 15 15 15 15 15 15 15 14 14 14 14 14 14 14 14 14 14 14 14 14 14 14 14 14 15 16 16 15 14 14 15 16 16 17 17 17 17 18 18 18 18 17 17 17 17 17 17 17 17 17 17 16 16
17 17 18 18 18 19 19 17 16 16 16 17 17 16 16 18 18 19 19 19 18 18 18 19 20 18 14 14 16 15 15 15 15 15 15 15 15 14 14 14 13 13 13 12 12 12 13 13 13 14 14 13 13 13 14 14 14 14 15 16 16 15 14 15 16 16 16 17 17 17 17 18 17 17 18 18 17 17 17 17 17 17 17 17 16 16
17 17 17 18 18 18 18 18 18 18 17 17 16 15 15 15 15 17 18 18 19 18 18 20 20 17 15 15 15 15 15 14 14 13 14 14 13 13 12 12 11 11 11 11 11 11 12 12 13 13 13 13 13 13 13 13 14 14 14 15 15 15 14 15 15 16 16 17 17 17 17 17 17 18 18 18 17 17 17 17 17 17 17 17 16 16
16 15 16 18 18 17 18 18 18 18 16 15 15 13 13 13 14 16 18 20 20 17 16 20 20 16 14 15 15 15 14 13 12 12 12 11 11 11 10 10 10 10 10 10 10 10 11 12 12 12 12 12 12 12 13 13 13 14 14 14 14 14 14 14 15 16 16 16 17 17 17 17 17 17 18 17 17 17 17 17 17 17 17 16 16 16
14 13 13 16 17 17 17 15 14 14 15 15 14 12 12 11 11 14 19 20 19 17 17 18 17 15 15 15 14 13 13 12 11 11 10 10 10 9 9 9 9 9 9 9 9 10 10 10 11 12 12 12 12 12 12 13 13 13 13 13 13 13 13 13 14 14 15 15 14 14 15 16 16 16 17 17 17 17 17 17 16 16 16 16 16 16
14 13 12 13 14 14 13 13 12 13 13 12 12 12 12 11 11 14 18 17 16 19 19 15 14 15 14 13 12 12 11 11 10 10 9 9 9 9 9 9 9 9 8 8 9 9 9 9 10 11 12 12 12 12 12 12 12 12 12 13 13 13 13 13 13 13 14 14 13 13 14 15 15 15 16 16 16 16 16 16 15 15 16 16 15 16
15 14 12 12 12 12 12 12 12 12 12 11 11 11 12 12 12 13 14 12 13 18 18 14 14 14 12 11 11 10 10 10 9 9 9 9 9 9 9 8 8 8 8 8 8 8 8 9 9 10 10 11 11 11 11 11 12 12 12 12 13 13 13 13 13 13 13 13 13 13 14 14 14 14 15 15 15 15 15 15 14 14 15 15 15 15
15 13 12 12 12 12 12 12 12 12 12 11 11 11 11 12 12 12 12 12 13 15 14 13 12 11 10 9 9 9 9 9 8 8 8 8 8 8 8 8 8 8 8 8 8 8 8 8 9 9 9 9 9 10 9 10 10 10 11 11 12 12 12 13 13 12 12 12 12 13 13 13 13 14 14 14 14 14 14 14 14 15 15 14 15 15
15 13 12 12 13 13 12 12 12 13 12 11 10 10 11 11 12 12 11 11 12 13 12 11 11 10 9 8 8 8 9 8 8 8 8 7 8 8 7 7 7 7 7 7 7 7 7 7 8 8 8 8 8 8 8 8 8 9 10 10 10 11 12 12 12 12 12 12 12 12 13 13 13 13 13 14 14 14 14 14 14 14 15 14 15 15
15 13 11 13 14 13 12 12 12 12 12 12 10 10 10 10 11 11 10 10 11 12 12 12 12 10 8 8 8 8 8 7 7 7 7 7 7 7 7 7 6 6 7 7 7 7 7 7 7 7 7 6 7 7 7 7 8 8 8 8 9 10 11 11 11 11 11 11 11 12 12 13 13 13 13 13 13 13 13 14 13 14 14 14 15 15
14 13 13 14 15 13 12 12 12 13 14 13 10 9 9 10 10 11 10 9 9 10 12 12 11 9 8 8 8 7 7 7 7 6 6 6 6 6 6 6 6 6 6 6 6 6 6 6 6 6 6 6 6 6 6 7 7 7 7 8 8 10 10 10 10 10 10 10 11 11 12 12 12 12 12 12 13 13 12 13 13 13 13 13 14 15
13 14 13 13 14 13 12 12 13 14 14 12 9 8 9 9 10 10 10 9 8 9 10 10 8 8 8 7 7 6 6 6 6 6 6 6 6 6 6 6 6 6 6 6 6 6 6 5 6 6 6 6 6 6 6 6 6 7 7 8 8 8 9 8 8 9 9 9 10 11 11 12 12 12 12 12 12 12 12 12 12 12 13 13 13 14
14 14 12 12 13 13 12 13 14 13 12 9 8 8 8 9 9 9 9 9 8 8 8 7 7 7 6 6 5 5 5 5 5 5 5 6 6 5 5 5 5 5 5 5 5 5 5 5 5 5 6 6 6 5 6 6 6 6 7 7 7 7 7 8 8 8 8 8 9 9 10 10 11 11 11 11 11 12 11 11 11 11 12 12 13 13
14 13 12 11 12 13 13 14 13 11 10 9 8 8 8 8 8 9 9 9 8 8 8 7 6 6 5 5 5 5 5 5 5 5 5 5 5 5 5 5 5 5 5 5 5 5 5 4 4 4 5 5 6 6 6 6 6 6 6 7 7 7 7 7 7 7 8 8 8 8 9 9 10 10 10 11 11 11 10 10 10 10 11 11 12 12
13 14 13 12 11 12 13 13 11 11 10 9 9 8 7 7 7 8 9 9 8 8 8 6 6 6 6 6 6 6 6 6 5 5 5 5 5 5 5 5 5 5 4 4 4 4 4 4 4 4 5 5 5 6 6 6 6 7 6 6 6 6 7 7 7 6 7 7 8 8 9 9 9 9 10 10 10 10 10 10 10 10 10 11 11 11
13 14 14 13 11 11 13 12 11 12 11 9 9 8 7 7 6 6 8 9 8 7 7 7 6 6 6 6 6 7 8 7 6 5 5 5 5 5 5 5 5 4 4 4 4 4 4 4 4 4 5 5 5 5 6 7 7 7 6 6 6 6 6 6 6 6 6 7 7 8 9 9 9 9 10 10 10 9 9 9 9 9 9 10 10 10
12 12 13 13 11 11 12 12 11 11 10 9 8 8 7 7 6 6 9 11 8 7 7 7 6 6 6 7 6 7 8 7 6 5 5 5 5 4 4 4 4 4 4 4 4 4 4 4 4 5 5 5 4 4 5 7 7 6 6 5 5 5 5 5 5 6 6 7 7 8 8 8 8 9 9 9 9 9 9 9 9 9 10 10 10 10
12 12 12 12 11 10 11 10 10 10 9 8 7 7 7 7 6 8 12 11 8 7 7 7 7 7 7 7 7 8 8 7 6 5 5 5 5 5 5 5 4 4 4 4 4 4 4 4 4 4 4 4 4 4 5 6 6 5 4 4 5 5 4 4 5 6 6 6 7 7 7 7 7 8 8 8 8 8 8 8 8 9 9 9 9 10
10 10 10 10 10 10 10 10 9 9 8 7 7 7 7 7 8 11 12 9 7 8 8 7 7 7 7 8 8 7 7 7 6 5 5 5 5 5 5 4 4 4 4 4 4 4 4 4 4 4 3 4 4 4 5 5 5 4 4 4 4 4 4 5 5 5 5 6 6 6 6 6 6 6 6 7 7 7 7 7 8 8 8 8 8 9
9 9 9 9 8 8 9 10 10 9 8 6 7 7 7 8 10 11 9 7 7 8 8 8 8 8 8 7 7 7 6 6 5 5 5 5 5 5 5 4 4 4 4 4 5 5 4 4 4 4 4 4 4 4 5 5 4 4 4 4 3 4 4 5 5 5 5 5 5 5 5 5 5 5 5 5 6 6 6 6 7 7 7 7 7 7
8 9 8 7 7 7 9 10 10 9 8 6 7 8 8 8 8 7 6 7 7 7 8 8 8 8 7 6 6 6 6 5 5 5 5 5 5 5 5 4 4 4 4 4 4 5 5 4 4 4 3 4 4 4 4 5 4 4 3 3 3 4 4 4 4 4 4 4 4 4 4 4 4 4 4 4 5 5 5 5 5 5 5 6 6 6
8 9 8 7 7 8 9 9 8 8 7 6 7 7 6 6 6 5 6 7 7 7 8 8 8 7 7 6 5 6 6 5 5 5 5 5 5 5 5 5 5 5 5 5 4 5 5 4 4 4 4 4 4 4 4 4 4 4 3 3 3 4 4 4 4 4 4 4 4 4 4 4 4 4 4 4 4 4 4 4 4 4 4 4 4 5
8 8 8 7 6 7 8 7 7 7 7 7 6 6 5 5 6 6 6 6 6 7 7 7 7 6 6 6 5 5 5 5 5 5 5 5 5 5 5 5 5 5 5 5 4 4 5 4 4 4 4 4 4 4 4 4 4 4 4 4 4 4 4 4 4 4 4 3 3 3 3 3 3 3 3 3 3 3 3 3 3 3 3 3 4 4
7 7 8 8 7 7 7 7 7 7 7 7 6 6 6 6 6 6 6 5 5 6 6 6 6 6 6 6 5 5 5 5 6 6 6 6 6 5 5 5 5 5 5 5 5 5 4 4 4 4 4 4 4 4 4 4 4 4 4 4 4 4 4 4 4 3 3 3 3 3 3 3 3 2 2 2 2 2 2 2 3 3 3 3 3 3
8 7 7 8 7 7 8 7 7 7 7 7 7 6 6 6 5 5 5 5 5 5 5 5 5 5 5 5 5 5 5 5 6 6 6 6 7 6 6 6 6 5 5 5 5 5 5 5 4 4 4 4 4 4 4 4 4 4 4 4 4 4 4 3 3 3 3 3 3 3 2 2 2 2 2 2 2 2 2 2 2 2 2 2 3 3
8 8 8 7 7 7 7 7 7 7 7 7 7 7 6 6 5 5 5 5 5 5 5 5 5 5 5 5 5 5 5 5 6 6 6 6 7 6 6 6 6 6 5 5 5 5 5 5 5 5 4 4 4 4 4 4 4 4 4 4 4 4 4 3 3 3 3 2 2 2 2 2 2 2 2 2 2 2 2 2 2 2 2 2 2 2
7 8 7 7 7 7 7 7 7 8 7 7 7 7 7 6 6 5 5 4 4 4 4 4 5 5 4 5 5 5 5 5 6 6 6 6 6 6 6 6 6 5 5 5 5 5 5 5 5 5 4 4 4 4 4 4 4 4 4 4 4 4 3 3 3 3 3 2 2 2 2 2 2 3 2 2 2 2 2 2 2 2 2 2 1 1
8 8 7 7 8 8 8 8 8 8 7 7 6 6 7 7 6 6 5 5 5 4 4 4 4 5 5 5 5 5 5 5 5 6 6 7 6 6 6 6 5 5 5 6 6 6 6 5 5 5 5 5 4 4 4 4 4 4 4 4 4 4 3 3 3 3 3 2 2 2 2 3 3 3 2 2 2 2 2 2 2 2 2 2 1 1
7 8 8 8 9 8 7 7 7 8 8 7 6 6 7 7 7 6 6 6 5 5 5 4 4 4 4 4 4 5 5 5 4 5 6 6 5 5 5 5 6 6 5 6 6 6 6 6 6 5 5 5 5 5 5 4 4 4 4 4 4 4 4 3 3 3 3 3 2 2 3 3 3 3 3 3 3 3 3 3 3 2 2 2 2 2
Height
773 777 778 777 778 779 778 777 777 780 782 782 785 787 787 788 788 787 783 774 774 778 772 769 771 767 763 761 761 761 762 764 766 767 766 764 765 767 769 769 767 765 761 762 767 770 774 777 779 782 784 787 789 792 793 795 796 797 800 803 806 809 807 806 808 810 813 815 817 819 821 822 823 825 826 827 828 829 830 831 832 833 834 835 836 837
775 777 777 774 775 775 775 777 779 782 784 784 784 784 785 788 788 785 781 775 775 779 772 769 772 766 760 759 760 761 763 764 763 764 764 761 762 765 768 769 768 765 763 762 765 768 772 775 777 780 782 784 787 789 791 793 794 796 798 800 803 808 809 806 807 809 811 813 815 817 819 820 822 824 825 826 827 829 830 831 832 833 834 835 835 836
779 777 774 774 774 775 778 782 782 783 784 785 785 786 785 786 787 783 780 778 777 777 772 770 772 764 756 758 761 761 760 757 755 756 757 756 757 761 765 768 768 767 765 764 764 766 770 773 775 778 780 782 785 788 790 791 793 793 796 799 801 805 808 807 806 808 809 811 813 815 817 819 821 823 824 826 827 828 829 831 832 833 834 834 835 837
780 773 771 774 775 775 780 784 783 783 785 785 785 785 784 786 788 784 780 780 777 776 774 772 773 765 756 759 761 758 755 752 752 752 752 752 752 754 759 763 764 765 764 763 763 765 768 771 773 776 778 780 783 786 788 789 790 791 794 798 800 802 806 808 807 808 809 811 813 815 816 818 820 822 824 825 827 828 829 831 832 833 834 835 836 837
774 771 771 775 775 773 779 785 784 783 783 785 785 783 782 784 785 780 779 780 776 776 776 775 776 767 759 761 759 756 757 755 754 754 753 751 750 751 756 759 760 761 761 762 763 764 767 770 772 774 776 778 781 783 786 787 788 789 792 796 797 799 803 808 809 809 810 811 813 814 816 818 820 821 823 825 827 829 830 831 832 833 834 835 836 837
770 770 771 775 777 776 778 782 782 781 781 784 782 777 776 776 777 779 781 782 780 778 776 777 778 768 760 761 759 760 762 757 755 756 753 750 750 751 754 756 757 759 759 760 762 764 767 769 771 773 775 777 779 781 783 785 786 788 790 793 795 798 801 806 809 809 810 810 812 813 815 816 818 821 823 824 826 828 829 830 832 833 834 835 836 837
768 770 770 771 775 777 778 778 778 779 781 783 775 769 772 772 775 781 782 783 782 779 776 777 778 772 763 755 756 764 766 758 755 755 751 748 748 748 749 751 752 755 757 758 760 763 766 768 770 772 774 776 778 780 782 784 785 786 788 791 794 797 799 802 805 807 808 809 811 812 814 815 817 819 821 823 825 827 829 830 831 833 834 835 836 837
766 770 772 771 773 777 777 775 775 775 778 777 769 768 772 773 777 781 780 779 778 775 776 776 775 777 771 756 756 766 766 759 755 752 749 747 745 744 744 746 747 750 753 756 759 762 765 767 769 772 773 775 777 779 781 783 784 785 786 789 791 795 797 799 802 804 806 807 809 811 813 815 816 818 820 822 825 827 828 830 831 833 834 835 836 837
763 768 770 769 772 775 771 766 769 772 772 768 767 771 771 771 775 775 776 778 779 780 777 772 774 779 771 756 757 765 762 756 753 749 747 745 743 743 743 743 745 747 751 754 758 762 766 768 770 773 774 775 777 778 781 782 783 784 785 787 789 792 795 797 799 801 804 805 808 810 812 814 816 818 820 822 824 826 828 829 831 833 834 835 836 837
762 763 761 763 768 767 762 761 765 767 766 764 767 772 770 772 775 775 777 776 782 786 776 769 774 776 767 752 751 759 756 751 749 746 745 744 743 743 742 743 745 748 752 755 759 763 767 770 771 773 774 776 778 779 781 782 782 783 784 786 788 790 794 796 797 799 802 804 807 809 811 813 815 818 820 822 824 825 827 829 831 833 834 835 836 837
760 760 760 760 760 757 756 761 765 763 762 764 766 768 770 775 776 777 778 776 782 783 771 768 771 772 771 753 743 751 753 751 749 746 744 743 743 743 742 745 747 749 753 756 760 763 767 769 770 772 774 776 778 779 781 781 782 783 784 786 788 790 793 796 797 798 800 803 806 809 811 813 814 817 819 821 823 824 826 828 830 832 833 835 836 837
761 761 760 754 752 755 755 760 766 764 762 765 765 766 771 776 776 778 778 779 784 779 771 775 773 774 773 753 743 753 756 754 753 750 747 744 743 744 744 746 747 750 753 756 759 762 765 766 766 768 770 774 777 779 781 782 783 785 788 790 792 792 793 795 797 798 800 804 806 809 811 813 814 816 818 820 821 824 825 828 829 831 833 835 836 837
762 759 757 752 750 752 754 759 766 767 766 767 767 770 775 779 782 784 780 782 782 772 773 781 777 775 766 749 749 757 755 753 753 751 749 746 744 743 744 746 748 750 753 756 758 760 762 762 762 764 766 770 775 779 782 784 786 789 792 793 794 795 794 795 798 800 802 805 807 809 811 813 815 816 818 819 821 823 825 827 829 831 833 834 836 837
763 758 756 757 752 747 750 757 760 763 766 766 766 769 773 778 790 793 788 789 783 770 773 780 776 771 758 749 755 758 753 752 750 748 747 747 745 743 744 747 749 752 754 757 760 760 762 763 766 768 769 771 776 781 783 784 785 786 788 789 793 796 796 798 802 804 805 805 806 809 811 813 815 816 817 819 821 823 825 827 828 830 832 834 835 837
768 764 754 752 750 744 746 747 746 753 762 762 759 761 765 767 775 782 779 777 774 768 773 778 773 765 754 753 757 753 750 749 746 746 746 745 745 744 747 751 753 755 757 759 760 761 763 765 769 772 773 774 779 783 783 781 782 784 786 789 793 796 798 801 806 808 808 807 806 808 810 812 814 816 817 819 821 823 825 827 828 830 832 833 835 837
770 763 746 744 747 743 742 740 740 749 759 763 760 760 764 755 755 772 780 777 774 770 772 775 769 760 754 755 755 750 750 749 746 746 746 746 745 747 751 753 754 757 759 761 762 763 766 767 769 772 774 777 779 780 780 779 782 786 789 792 795 797 799 801 804 806 808 809 808 808 809 811 813 815 817 819 821 823 825 827 828 829 831 833 835 837
767 759 744 744 746 742 741 740 740 744 751 762 764 758 758 750 748 768 785 788 785 776 773 776 768 758 755 756 753 750 753 755 753 753 754 753 752 754 757 757 758 759 761 764 767 768 769 769 770 772 774 777 777 777 778 780 782 786 790 793 795 797 798 799 799 801 804 807 809 809 809 810 812 814 817 819 822 824 825 826 827 829 830 832 834 836
760 755 745 744 743 741 743 742 740 741 744 755 758 749 750 754 752 760 773 782 784 776 773 777 773 764 760 758 756 756 759 763 763 760 760 760 759 760 761 761 762 763 764 766 768 771 773 772 772 773 775 776 777 778 779 781 783 786 789 791 791 793 795 797 798 800 802 805 808 809 809 811 812 815 817 820 822 823 825 826 827 828 829 831 834 835
758 756 748 745 745 743 744 743 744 745 743 746 746 741 746 756 757 761 769 774 777 779 776 775 777 771 761 760 763 764 766 769 768 766 764 764 763 763 763 764 765 765 767 767 767 770 774 774 774 775 776 777 778 780 780 782 784 787 789 788 788 789 792 795 797 799 802 804 806 808 809 811 812 814 817 819 821 823 824 825 826 827 829 830 833 835
756 758 753 747 746 745 743 743 745 747 746 744 744 744 747 751 753 758 763 762 765 776 778 773 770 764 761 769 774 771 770 771 771 771 770 769 767 765 764 765 765 765 767 768 767 768 771 773 775 776 776 777 778 779 780 782 784 786 786 785 785 787 790 794 796 798 800 803 805 807 808 810 812 813 816 818 820 822 823 824 825 827 829 830 832 834
753 759 757 747 743 745 745 745 746 747 746 745 746 748 750 753 755 756 760 763 761 767 777 776 765 760 769 778 776 772 772 770 771 773 773 772 770 768 766 764 763 763 765 767 767 766 769 773 775 775 776 776 777 778 779 781 782 783 784 784 785 787 790 793 795 796 799 801 803 806 808 810 812 813 816 818 820 822 823 824 825 827 828 830 832 834
750 756 758 751 746 747 747 748 750 749 747 747 745 744 746 751 754 755 763 769 765 762 771 772 761 761 775 777 772 773 772 768 770 772 773 774 771 770 768 765 764 765 766 768 768 767 770 774 775 774 775 775 776 777 778 780 781 782 783 785 786 789 791 793 795 796 798 800 802 805 807 809 812 814 816 818 820 821 822 823 825 826 828 830 832 833
748 752 755 754 751 750 749 751 754 753 752 751 749 749 749 748 746 749 755 763 767 768 770 768 761 765 777 776 770 772 771 769 771 771 771 774 772 772 771 769 768 769 770 772 770 769 772 775 775 774 774 774 775 777 778 780 782 783 783 784 786 789 791 793 795 796 798 800 802 804 806 809 811 813 816 818 819 821 822 823 824 826 828 830 831 833
748 752 756 756 753 749 745 748 753 753 752 752 754 758 759 755 752 750 750 754 761 767 767 764 763 769 776 774 770 772 772 771 773 772 772 773 773 774 774 774 774 774 775 776 774 772 774 776 776 775 775 776 777 780 781 782 783 782 782 783 785 788 791 793 795 796 798 800 801 803 805 807 810 813 815 817 819 820 821 823 824 826 828 830 832 833
750 754 756 758 760 759 755 753 751 748 752 757 761 764 764 764 762 756 754 754 756 764 765 756 759 771 776 773 771 772 773 774 776 777 776 776 777 778 779 780 780 780 780 779 777 776 777 778 778 777 778 778 778 781 783 783 783 783 784 785 785 787 790 792 794 796 798 800 801 803 804 806 809 811 813 816 818 819 821 823 825 827 828 830 832 834
754 761 759 756 760 764 764 762 759 756 759 762 766 770 771 773 769 760 754 751 753 768 769 753 757 775 778 772 772 774 775 779 782 782 782 783 784 785 785 785 784 784 784 782 780 780 780 780 780 780 781 780 780 782 783 783 783 784 785 786 786 788 789 791 793 795 798 800 801 802 804 806 808 810 813 815 817 819 821 823 825 827 828 830 832 833
760 770 769 761 757 759 761 766 770 770 768 768 771 775 778 782 781 767 752 747 753 764 767 761 766 776 777 775 778 780 781 784 787 787 788 789 790 789 789 789 788 788 787 785 783 782 781 781 782 782 782 783 782 782 782 782 783 784 785 786 786 787 789 791 794 796 798 801 803 805 806 807 808 810 813 815 817 819 821 823 825 827 829 831 832 833
761 771 774 772 769 769 771 773 775 775 777 781 783 781 779 781 780 767 757 761 761 755 759 771 773 773 780 785 785 786 788 789 792 793 793 794 794 793 793 792 791 791 790 788 786 785 784 785 785 785 784 785 785 784 784 784 784 784 785 786 787 788 789 791 794 797 799 802 806 808 809 808 809 811 813 815 817 819 821 823 825 828 830 831 832 834
758 768 775 777 776 776 776 775 775 777 782 787 786 784 783 781 778 773 774 781 774 757 759 773 776 778 789 794 793 794 794 795 798 798 797 797 797 796 795 795 795 795 794 792 791 790 790 789 789 788 788 788 787 786 787 788 787 786 786 787 788 790 791 793 796 799 801 804 806 809 809 810 810 812 814 816 818 820 822 824 826 829 831 832 833 834
756 769 777 776 776 777 777 776 775 778 783 786 788 788 785 782 780 779 781 783 777 769 772 779 784 792 799 800 800 801 800 800 801 800 800 801 800 799 799 798 799 799 798 798 796 795 794 793 793 792 792 791 791 790 790 790 790 788 788 790 791 791 793 794 797 800 803 805 807 808 809 811 812 814 815 817 819 820 822 824 827 830 832 833 833 834
753 769 778 774 774 777 779 779 776 776 780 787 792 792 788 785 783 782 786 787 782 779 783 786 791 799 804 804 805 804 802 803 804 804 805 805 804 803 802 802 803 803 802 802 800 799 798 797 796 796 795 795 795 794 793 793 792 791 791 792 793 794 795 796 799 802 804 806 808 810 810 811 813 815 816 818 820 821 823 826 829 831 832 833 833 833
753 769 778 772 771 776 781 781 780 779 778 783 793 799 796 793 790 789 793 795 790 785 785 786 789 799 806 808 807 807 806 807 808 809 809 809 808 806 805 806 807 806 806 805 803 802 802 801 801 800 800 800 799 799 798 796 794 794 795 795 796 796 797 799 801 803 805 807 809 811 812 813 814 815 817 818 820 822 825 828 830 831 832 833 833 833
756 763 768 766 767 776 782 781 780 778 773 779 797 807 803 799 796 794 795 798 799 793 787 786 794 803 808 808 809 811 811 811 812 813 813 812 811 810 809 810 810 809 810 809 806 806 806 806 806 805 805 804 803 803 803 799 797 798 799 799 799 800 800 803 805 806 808 809 810 812 813 814 815 816 817 819 821 823 826 828 830 831 832 833 834 833
759 759 764 766 765 773 782 781 778 776 776 790 808 811 806 803 799 796 799 802 804 800 795 798 805 810 811 811 814 815 815 816 816 815 815 815 814 813 813 813 813 813 813 812 810 809 810 810 810 809 809 808 807 807 806 804 802 802 803 803 803 804 805 806 808 809 810 811 812 813 815 815 816 818 819 820 822 824 827 828 830 831 832 833 832 832
758 759 767 771 768 773 780 778 775 780 790 805 813 810 807 806 804 803 804 805 806 805 805 808 811 813 815 818 819 819 819 819 818 818 819 818 816 816 817 817 816 816 816 815 813 813 814 814 813 812 812 811 811 810 808 808 808 807 806 807 807 808 809 809 811 812 813 814 815 816 817 817 818 820 821 822 824 825 827 829 830 831 832 831 831 832
757 758 768 775 775 775 776 775 780 793 804 809 810 809 809 809 807 806 802 803 808 808 807 812 815 817 819 820 820 821 820 818 819 822 823 821 820 820 820 821 821 820 821 819 817 817 818 817 817 816 815 814 814 813 812 813 812 810 810 811 810 811 812 812 813 815 816 817 818 819 820 820 821 821 823 824 825 827 828 830 831 832 832 831 832 833
759 757 762 773 782 781 777 782 791 796 801 807 810 813 815 815 815 813 806 805 810 809 809 814 817 817 819 820 820 820 817 815 820 827 827 825 824 824 824 824 824 824 825 823 820 820 821 820 821 820 819 818 817 817 817 818 816 814 814 815 815 816 816 815 816 818 819 820 822 823 823 824 824 824 825 826 827 829 830 831 832 833 834 833 833 834
762 760 759 767 782 782 775 782 790 788 794 808 812 814 818 818 819 819 810 805 810 811 811 814 816 817 819 819 819 818 813 814 824 832 832 829 827 827 827 827 827 827 828 826 824 823 823 823 823 822 821 821 821 821 822 821 819 818 818 820 821 821 820 820 821 822 822 823 825 825 826 827 827 827 827 828 829 831 832 833 834 835 836 836 835 835
767 766 762 767 783 786 779 785 794 795 802 813 814 814 816 815 818 817 804 798 808 814 813 814 817 818 818 818 818 817 814 818 829 834 833 831 830 830 830 830 830 830 830 829 827 826 825 825 825 825 824 824 824 825 825 824 823 822 822 824 825 824 824 825 825 826 826 827 828 828 829 829 829 829 830 831 832 832 833 834 835 836 837 837 837 837
773 772 772 777 789 793 791 796 804 806 811 817 817 814 813 813 816 808 792 794 808 813 812 814 817 817 817 817 817 816 814 819 827 832 833 833 832 832 833 833 833 832 832 831 830 828 828 827 827 827 827 827 828 828 828 827 826 826 827 828 827 828 829 830 830 830 830 830 831 831 831 832 832 832 833 833 834 834 835 836 837 837 837 837 837 838
789 788 788 791 795 796 795 799 807 810 815 818 817 814 814 813 806 795 792 804 814 811 811 815 815 815 817 816 816 818 818 819 824 830 833 834 833 834 834 834 834 834 833 833 832 831 830 829 829 830 830 831 831 831 830 830 829 830 831 831 830 832 834 834 834 834 834 834 834 834 834 834 835 835 835 836 836 836 836 837 837 838 838 838 838 838
798 799 800 805 809 809 805 800 801 809 818 821 816 811 811 807 799 797 807 815 815 811 813 814 814 815 817 817 818 820 821 823 827 831 833 834 835 835 836 835 836 835 835 835 834 833 832 832 833 833 834 834 834 834 833 832 832 833 834 834 835 837 837 837 837 837 837 837 837 837 837 837 837 837 837 838 838 837 838 838 838 838 838 838 838 839
805 805 809 818 821 817 810 804 803 811 820 822 816 811 812 811 810 815 819 816 812 814 815 814 815 817 817 820 822 822 824 827 829 831 834 835 836 836 837 837 837 837 837 837 837 836 835 835 836 836 837 838 837 836 835 834 835 836 837 838 840 841 840 840 840 840 840 840 840 840 840 840 840 840 839 840 840 839 839 839 839 839 839 839 839 839
809 807 812 821 822 815 813 816 820 823 825 824 821 820 822 822 822 822 820 816 815 816 815 815 818 819 819 822 825 825 827 829 830 832 835 836 837 837 838 839 839 839 839 839 840 839 838 838 839 840 840 841 840 839 838 837 838 839 840 842 844 843 843 843 843 843 843 843 843 843 843 843 842 842 841 841 841 841 841 840 840 840 839 839 839 839
813 812 812 819 824 821 820 825 828 828 827 826 825 825 826 824 822 820 819 820 820 818 818 819 821 822 823 824 826 828 829 830 831 834 835 836 838 838 838 839 840 840 841 841 842 842 841 841 842 842 843 843 843 842 842 842 842 842 843 845 846 846 845 846 845 845 845 845 846 845 845 845 844 843 842 842 841 841 841 841 840 840 840 840 840 840
818 818 815 817 823 824 823 825 827 828 828 827 826 826 825 824 823 822 821 822 823 822 823 823 824 825 827 827 829 831 832 832 833 835 835 837 838 839 839 840 841 842 843 843 844 844 844 844 845 845 845 846 845 845 845 845 845 845 846 847 848 848 848 848 847 848 848 848 848 847 847 846 845 844 844 843 842 842 841 841 841 841 840 840 840 840
817 818 818 819 822 823 823 827 829 828 829 828 827 827 827 826 826 825 824 825 826 826 827 828 829 830 831 832 834 834 834 835 835 836 837 838 838 840 841 841 843 844 845 845 846 846 846 847 847 848 848 848 848 848 848 848 848 848 848 849 849 849 849 849 849 849 849 849 849 848 848 847 847 846 845 844 844 843 843 842 842 841 841 841 840 840
816 816 819 822 824 825 827 830 831 829 829 828 827 828 829 828 828 828 828 828 829 829 831 832 833 833 835 836 836 837 837 838 838 838 839 840 840 842 842 843 844 845 846 847 847 848 848 848 849 849 850 850 850 851 850 850 850 850 850 850 850 850 850 850 850 850 850 849 849 849 849 848 848 848 847 846 846 845 845 844 843 843 842 842 841 841
819 818 822 825 825 827 830 831 829 828 829 830 830 830 830 829 830 831 831 832 832 833 834 835 836 837 838 838 838 839 840 841 841 840 841 841 842 843 843 844 845 846 847 848 848 848 849 850 850 851 851 852 852 852 852 852 852 852 852 852 852 852 852 851 851 851 850 850 850 850 850 850 849 849 849 848 847 847 846 845 844 844 843 843 842 842
820 820 825 824 822 825 828 828 827 827 830 833 834 832 832 831 831 832 832 833 834 835 836 838 839 840 840 840 840 841 841 842 843 842 842 843 843 844 844 845 846 847 848 848 849 850 850 850 851 852 852 853 853 853 854 854 854 854 854 853 853 853 853 852 852 852 852 852 852 851 851 851 850 849 849 848 847 847 846 845 844 843 843 842 841 841
824 824 825 821 821 825 828 828 829 828 830 834 835 834 834 833 832 833 833 833 834 835 836 838 840 841 842 842 842 842 842 843 843 843 844 844 845 845 845 846 846 847 848 849 849 850 851 851 852 852 853 853 854 854 855 855 855 855 855 854 854 854 853 853 852 852 851 851 851 851 850 850 849 848 847 846 846 845 845 844 844 843 842 841 841 840
Wind_Speed
2 4 4 5 5 5 5 6 5 3 3 2 1 2 3 3 3 1 5 6 1 4 7 4 4 7 7 5 6 7 9 10 11 11 12 12 13 13 12 12 13 13 11 6 9 14 15 17 18 16 16 19 21 22 23 22 21 21 23 23 20 19 22 21 19 19 20 18 17 16 16 14 12 12 12 11 11 11 10 10 10 10 11 12 12 12
2 5 4 4 6 5 4 5 4 4 3 2 3 4 4 3 3 3 7 7 1 4 5 2 4 8 9 6 5 6 8 11 14 14 14 16 15 13 13 13 13 13 9 6 10 14 16 18 19 17 17 20 22 22 23 23 21 23 25 23 20 20 21 21 19 20 21 19 18 18 15 13 12 11 11 11 12 12 11 12 11 11 12 12 12 12
3 5 4 5 5 4 4 4 5 4 3 2 2 4 5 2 1 4 5 4 2 4 4 2 4 9 10 6 4 7 10 12 14 16 16 17 16 14 15 14 13 13 12 11 13 14 16 19 19 18 17 19 22 22 24 23 21 25 26 21 20 22 21 19 20 20 19 18 18 17 15 13 12 11 12 12 13 13 13 13 13 12 13 12 10 10
3 4 4 6 6 6 4 3 5 3 2 3 3 4 4 1 0 4 2 0 2 4 5 5 5 8 9 4 4 9 11 9 10 14 15 15 16 15 16 16 16 17 17 16 14 13 16 18 19 19 17 17 19 20 23 23 22 25 25 20 21 23 22 21 20 18 16 17 16 14 13 14 12 13 13 12 11 12 13 14 13 12 12 11 10 10
4 0 4 6 5 6 4 3 5 3 3 3 5 6 5 2 5 6 2 2 4 4 4 5 6 6 5 2 3 4 6 9 7 9 14 15 14 13 13 16 17 19 19 17 16 14 15 17 18 19 17 16 17 18 20 22 22 24 24 22 24 24 23 22 20 17 16 16 16 14 15 15 14 15 15 13 12 12 12 13 13 12 11 10 10 10
5 3 6 6 4 5 5 4 5 5 4 2 5 9 10 9 9 7 1 2 4 3 2 2 5 3 0 1 4 0 4 9 7 8 14 16 15 13 13 16 17 18 18 17 17 15 13 16 17 17 16 16 16 16 18 20 21 24 25 24 25 23 23 23 21 18 16 15 17 18 18 17 17 17 16 15 15 14 12 12 13 12 11 10 9 10
3 4 7 6 5 6 6 4 5 6 4 3 3 9 12 11 8 5 4 3 3 2 1 1 4 3 1 3 4 1 4 8 8 11 14 14 15 15 14 16 17 17 17 17 16 14 14 17 16 15 16 16 15 15 18 21 21 22 25 25 24 23 23 25 23 20 17 17 18 18 18 18 18 18 17 17 17 16 14 14 14 13 12 11 10 10
2 5 5 5 5 6 5 4 6 9 5 1 1 5 7 8 7 7 7 6 3 3 1 1 3 4 4 4 2 1 6 8 10 13 14 13 15 16 16 16 17 17 17 16 16 14 15 18 16 15 15 15 15 16 18 21 20 20 23 23 25 26 25 26 26 22 18 18 20 19 17 17 18 19 20 20 19 17 17 17 16 14 13 13 11 11
3 6 7 7 5 4 5 4 7 11 6 2 3 4 5 5 6 7 6 5 2 2 4 3 3 4 4 3 2 1 5 8 9 11 12 13 15 16 16 16 17 16 15 14 14 12 12 15 16 14 13 12 15 16 17 20 20 22 23 23 25 27 28 27 27 24 21 22 24 23 21 20 20 21 23 22 19 19 18 17 16 14 13 13 12 11
1 5 7 8 6 6 7 4 9 13 6 1 6 5 3 3 3 4 4 3 3 3 6 3 5 4 4 2 2 1 3 5 4 5 8 10 13 15 16 15 14 13 12 12 10 9 10 13 13 12 11 11 13 15 17 18 21 22 22 23 24 25 27 25 24 25 24 25 26 25 25 25 24 24 23 22 20 20 19 18 17 15 13 12 11 11
1 1 2 4 5 5 5 3 7 10 5 4 6 4 3 3 2 2 1 1 3 5 3 4 6 5 3 2 3 1 1 4 4 4 4 7 10 13 13 13 12 11 9 8 8 9 10 11 12 12 11 11 11 14 16 16 19 21 20 21 21 22 26 24 23 27 27 26 26 25 26 27 26 25 24 22 21 20 20 19 18 16 14 12 11 11
1 0 1 3 3 2 3 3 3 4 3 2 2 2 2 2 1 2 1 1 4 5 0 2 4 5 5 3 0 2 3 5 6 7 7 7 9 10 10 9 10 10 7 7 9 11 11 12 15 16 15 14 13 13 14 13 15 16 14 15 15 18 26 27 25 26 26 26 26 24 25 26 26 26 25 24 22 21 21 21 19 17 14 12 12 12
2 4 3 2 2 4 4 3 2 2 3 3 2 2 2 1 1 2 2 2 4 4 1 1 2 3 6 4 3 4 5 7 7 8 9 9 8 8 9 8 8 8 8 8 9 11 10 9 12 16 18 17 14 12 11 7 8 10 10 13 12 13 23 28 26 24 25 25 24 24 24 24 24 24 24 24 23 22 21 21 20 17 15 13 12 12
3 3 2 2 2 5 7 6 3 3 5 6 5 4 4 3 2 2 2 1 4 3 2 2 2 2 4 1 5 6 6 8 9 9 9 8 7 7 7 6 6 8 9 9 9 9 7 4 6 10 13 15 13 12 11 9 11 14 17 18 14 12 16 19 20 21 24 26 24 23 23 22 22 23 23 23 23 23 22 20 19 17 16 15 13 11
3 2 4 5 1 5 11 9 4 3 5 6 4 3 3 3 2 3 3 4 5 2 2 2 3 3 2 1 4 6 6 7 7 7 3 3 3 2 4 6 7 7 7 7 8 7 4 5 8 9 12 17 18 13 11 15 17 17 19 18 15 14 12 11 13 16 19 22 23 22 21 21 22 22 23 23 23 23 22 19 18 16 16 15 13 11
2 4 4 2 0 6 10 6 3 5 3 2 2 2 2 3 2 0 0 1 2 1 1 2 2 2 1 1 4 5 7 9 9 10 8 4 4 6 6 7 8 8 7 5 5 4 5 8 10 13 18 23 21 16 16 16 15 15 16 14 12 13 14 15 18 18 18 19 20 21 22 22 23 23 23 24 24 23 21 19 17 16 16 14 13 12
1 2 2 1 1 5 5 4 5 3 3 3 3 4 1 0 2 2 1 2 1 3 1 1 2 2 1 1 3 6 10 13 12 12 12 9 8 7 4 4 4 5 5 5 5 4 5 8 11 17 25 24 19 17 15 14 13 15 15 13 13 13 14 17 21 23 22 20 20 22 22 23 24 24 23 23 23 23 21 18 16 15 14 14 13 12
2 2 1 1 3 2 2 2 3 0 2 4 3 4 3 1 1 1 1 1 0 4 1 1 2 2 2 2 3 7 11 12 12 12 13 12 11 9 7 7 7 7 6 6 7 6 5 7 11 19 24 22 17 13 13 13 11 13 15 15 15 16 16 18 21 24 24 21 22 23 23 24 25 24 23 22 23 22 20 18 16 14 13 12 12 12
2 2 2 2 2 1 1 2 3 2 0 0 1 3 3 2 2 2 2 2 2 3 1 1 1 2 3 1 3 6 9 10 10 12 13 12 11 9 8 8 9 8 6 4 5 5 4 5 10 15 18 17 15 13 12 11 10 11 15 15 16 17 18 20 23 24 23 21 23 23 23 24 25 24 23 22 22 21 20 18 16 14 13 12 12 12
1 2 2 1 1 1 1 2 2 3 2 1 1 2 0 1 2 2 1 1 2 3 1 1 1 1 1 1 3 5 7 6 8 10 11 11 10 10 9 8 8 7 5 3 4 6 6 5 7 12 14 11 13 15 14 13 12 15 17 16 16 18 19 22 24 23 22 21 22 22 23 25 25 24 23 22 21 21 19 17 16 14 13 12 12 12
2 2 2 1 2 3 1 0 1 2 3 2 4 4 2 1 0 1 1 1 1 2 2 2 3 1 2 1 2 4 5 3 6 8 8 9 8 8 7 5 7 9 7 5 4 6 8 7 7 11 12 10 12 16 17 17 19 22 20 16 16 19 20 24 25 23 23 22 21 22 24 24 24 24 23 22 21 19 18 16 15 14 13 12 12 13
1 2 2 1 2 2 0 1 1 1 1 1 3 4 3 3 2 3 3 1 1 1 1 2 2 1 2 1 1 3 3 2 7 8 7 6 6 6 4 3 5 7 7 6 5 6 6 6 7 10 11 10 13 17 19 19 20 22 20 15 15 18 19 23 26 24 23 23 21 22 22 23 23 23 23 22 21 19 17 16 14 13 12 12 13 13
1 2 1 2 2 2 2 1 0 1 1 2 1 0 1 1 2 4 5 3 2 1 1 1 1 0 1 1 2 2 2 5 7 8 8 7 6 7 6 4 5 7 6 5 5 6 6 4 5 7 9 10 13 17 18 17 15 18 20 17 15 15 16 21 25 24 23 23 22 22 22 22 23 23 22 21 21 19 17 15 14 13 12 12 12 13
1 1 1 1 1 2 2 1 1 1 2 2 3 3 1 1 1 1 2 1 3 3 2 2 2 1 1 1 2 3 5 8 6 6 9 8 8 8 8 7 7 8 8 8 7 7 7 6 6 6 7 8 10 11 12 12 13 15 18 18 18 16 16 21 23 22 21 22 21 22 22 23 23 23 21 20 20 19 17 15 14 13 12 11 11 12
1 0 1 2 2 1 1 2 3 2 1 1 2 3 3 2 1 1 1 1 3 2 1 3 3 1 1 2 4 4 6 8 7 7 7 7 7 7 8 9 9 9 9 9 8 8 8 7 8 9 9 11 10 9 9 10 11 11 11 12 14 14 15 19 22 21 20 20 20 22 22 23 23 22 20 20 19 18 16 15 15 13 12 11 11 11
1 1 0 2 4 4 3 2 2 1 1 1 2 5 7 6 3 1 1 2 4 2 2 3 1 2 2 4 6 6 7 9 9 9 9 9 8 8 8 9 9 9 9 9 8 7 7 7 8 9 9 9 8 8 8 10 9 7 7 7 8 10 11 14 18 21 20 19 20 21 22 22 22 21 21 20 19 18 16 15 15 14 13 11 11 11
2 3 2 1 2 2 1 1 1 1 1 1 4 7 8 7 4 2 2 2 2 4 3 1 3 7 6 5 6 6 8 9 8 9 9 9 8 9 9 9 9 9 8 8 8 7 8 9 9 9 9 8 7 8 8 11 12 10 8 7 6 7 8 9 11 14 14 12 12 14 16 19 20 19 19 19 18 17 15 14 14 14 13 12 11 11
4 3 2 4 5 3 1 1 1 2 3 3 5 7 8 9 5 1 1 1 1 3 3 2 7 9 6 6 7 7 8 8 8 8 8 7 7 8 9 10 11 10 10 10 10 10 10 10 10 11 11 10 10 11 11 10 11 10 9 8 8 8 8 7 6 7 10 11 10 11 13 16 17 17 17 17 16 15 13 12 12 11 11 11 11 11
4 3 1 1 5 5 4 4 5 6 6 7 8 8 9 10 7 5 3 4 4 1 2 7 10 8 5 6 7 7 7 8 8 8 7 8 8 8 9 11 12 11 11 12 11 11 11 10 10 13 14 13 14 16 16 15 13 13 12 11 10 10 10 10 8 9 11 12 12 13 14 15 16 17 16 16 15 14 13 12 11 10 9 8 9 10
2 3 1 3 4 6 5 4 6 7 7 9 10 10 9 9 9 9 7 6 6 5 6 10 11 8 5 5 7 7 7 8 8 8 9 9 9 9 10 11 12 12 12 12 11 10 10 10 11 14 15 16 16 16 17 17 17 18 19 16 14 14 13 13 12 12 13 12 11 14 16 18 19 18 17 17 17 16 15 14 11 10 7 5 6 8
1 2 1 1 3 3 5 4 5 7 8 10 12 12 10 9 9 8 7 7 7 7 9 10 10 6 4 5 7 7 8 9 9 10 10 9 9 10 11 11 11 12 11 11 11 10 11 11 13 15 16 17 16 16 16 17 18 21 22 20 19 19 17 16 16 14 13 13 13 15 17 18 18 17 15 15 14 14 13 9 6 8 7 3 4 6
1 3 2 1 2 1 3 4 3 3 6 8 11 13 12 8 6 5 5 4 4 4 8 8 5 3 3 5 7 8 9 11 11 11 10 9 9 11 11 11 11 11 11 11 11 12 12 12 13 15 16 17 18 18 16 19 22 22 22 22 22 22 20 19 20 18 16 15 15 15 15 15 15 13 11 10 8 8 10 12 10 9 9 5 4 5
1 4 4 2 3 2 2 4 2 0 2 2 6 8 9 7 4 2 3 5 6 2 4 4 3 4 5 6 7 9 10 11 11 10 9 9 10 11 12 12 12 11 11 11 12 13 13 12 13 15 16 18 21 21 19 21 25 23 21 23 25 25 24 23 23 21 19 17 16 16 15 14 14 13 12 11 10 10 12 13 11 8 8 7 6 6
2 4 3 1 2 3 2 3 1 2 2 1 2 5 6 6 5 3 3 6 6 3 4 5 6 6 6 6 7 9 10 10 10 10 9 8 9 10 11 11 11 11 11 11 12 13 13 13 14 16 17 18 20 22 22 25 26 25 25 27 29 30 29 28 27 25 23 22 20 19 17 16 16 17 17 16 16 16 14 12 11 10 10 10 9 8
3 4 2 1 2 3 2 0 2 2 0 2 2 4 5 4 5 4 4 6 6 6 9 9 9 8 8 8 7 7 9 11 12 12 11 10 9 10 11 10 11 11 10 10 12 13 14 15 15 16 19 20 19 22 26 27 27 29 31 30 31 33 33 32 31 29 27 26 24 22 21 21 21 21 20 19 18 17 16 14 13 13 12 12 11 11
3 3 3 2 2 2 3 1 2 2 2 3 2 5 4 2 4 3 3 6 6 4 8 10 9 9 10 10 9 7 7 11 13 12 10 11 11 10 10 10 11 11 10 10 13 15 16 17 18 18 21 24 23 25 27 28 29 33 34 33 33 34 34 34 33 31 30 29 27 25 25 25 25 24 22 20 20 19 18 16 15 14 14 14 14 14
1 3 3 2 2 1 3 3 3 3 3 2 2 4 3 2 4 3 1 3 4 2 6 10 10 10 11 10 10 8 7 9 11 10 9 10 11 11 11 12 12 12 12 13 16 18 19 20 21 23 25 28 28 28 29 30 32 36 36 34 33 33 33 33 32 29 30 30 28 27 26 26 26 25 23 22 22 21 20 19 18 18 17 17 16 15
4 2 1 2 1 0 2 4 3 2 2 3 4 3 2 3 5 4 2 1 2 4 6 9 11 11 11 11 9 7 4 7 8 5 6 8 9 11 13 13 13 13 12 13 16 19 21 22 22 24 26 27 27 27 29 31 34 37 36 33 31 30 31 31 28 27 28 27 26 26 26 25 25 25 24 23 22 21 19 18 17 17 16 16 16 16
8 5 3 3 2 1 2 3 2 1 2 3 6 7 5 5 5 4 2 1 2 5 7 9 11 10 10 10 7 4 1 5 5 3 4 7 8 10 11 12 13 13 14 16 17 19 21 22 23 25 27 26 24 24 27 30 33 35 33 31 31 30 29 28 26 26 26 25 24 23 23 23 23 23 22 22 21 20 18 17 16 14 13 13 13 13
8 6 4 4 3 2 2 3 2 2 3 4 8 10 8 5 3 4 1 2 3 6 8 8 10 10 8 8 4 1 1 4 6 5 6 7 9 10 11 11 12 13 16 19 20 21 22 24 24 24 24 23 21 22 25 28 31 32 30 29 31 30 27 25 24 24 23 22 22 21 20 20 20 19 19 18 17 16 15 14 13 12 11 11 11 10
4 4 4 4 3 3 3 3 3 3 2 5 9 10 8 4 3 2 1 2 0 5 8 8 9 9 6 4 2 1 4 6 8 9 8 9 11 11 11 12 13 15 18 19 20 22 23 24 24 23 21 19 19 21 24 27 29 29 27 28 29 27 24 23 22 22 21 21 21 21 20 19 19 18 17 15 13 12 12 11 10 9 8 9 8 7
3 3 3 3 2 2 2 2 2 3 2 7 11 9 4 2 2 1 4 4 2 4 7 7 8 8 4 2 4 6 9 11 12 11 10 9 10 10 10 11 12 13 16 19 21 23 23 23 23 22 20 18 19 21 23 27 28 25 24 25 25 22 21 21 21 21 21 21 21 20 20 19 18 18 17 15 14 13 13 11 10 9 8 7 6 6
3 1 2 3 2 1 2 3 2 2 3 9 11 6 3 3 3 4 5 4 0 4 5 6 5 5 5 7 8 10 13 13 12 12 10 8 8 8 9 10 10 11 12 14 17 21 24 23 22 21 19 18 18 20 23 26 27 24 24 24 21 19 19 20 20 20 21 20 20 19 18 17 17 16 16 14 13 13 13 12 11 10 9 9 8 7
4 2 2 2 2 2 3 4 3 2 4 8 7 3 3 4 5 5 4 3 3 3 3 4 4 5 7 9 9 10 12 13 11 11 10 7 7 8 9 9 10 12 12 12 14 19 23 23 22 21 20 19 19 20 22 25 25 24 23 21 18 18 19 18 18 19 19 19 18 17 16 16 15 14 13 12 12 11 11 10 10 10 9 9 9 8
5 3 2 3 3 3 4 3 1 2 4 5 4 3 3 4 4 3 2 4 4 3 3 4 6 7 7 8 8 7 8 9 10 9 9 8 7 8 8 9 10 12 13 14 16 20 22 22 22 21 20 20 20 21 21 21 23 23 21 18 16 17 17 17 17 18 18 17 16 15 15 15 14 14 13 12 11 11 10 10 9 8 8 8 8 7
3 2 1 3 3 3 5 4 3 3 5 5 5 4 4 5 5 4 5 7 6 5 5 5 7 8 7 7 7 7 6 7 8 9 8 9 8 8 9 10 10 11 12 13 15 19 21 21 20 20 19 19 19 20 20 19 20 20 18 16 15 15 15 16 16 17 16 15 15 15 15 15 15 15 15 14 12 11 11 10 9 8 7 7 7 7
2 1 1 2 1 2 3 5 5 5 5 5 5 6 7 8 8 7 7 7 7 7 8 8 9 9 8 8 7 6 6 7 8 8 7 8 9 10 10 10 10 10 11 12 14 16 17 16 16 16 16 16 17 17 18 17 17 17 15 14 13 13 13 14 14 15 14 14 14 15 15 15 14 13 13 13 11 10 9 9 8 8 7 7 6 6
2 1 2 3 3 2 3 4 4 5 7 6 6 6 7 8 10 9 9 9 9 10 10 10 10 9 7 7 6 6 6 6 6 7 7 6 7 9 9 10 10 10 11 11 12 13 13 13 12 13 13 13 13 14 14 14 14 13 11 11 10 10 11 12 12 13 14 14 14 14 14 14 14 12 12 12 11 9 8 8 7 7 7 6 5 4
2 1 1 2 3 4 3 3 3 6 9 8 7 6 6 7 10 11 11 11 12 12 12 11 11 10 8 6 6 6 6 4 4 7 7 7 7 8 8 9 10 11 11 11 12 14 14 14 13 13 12 12 12 12 12 11 11 10 9 9 9 9 10 11 11 11 12 12 12 12 11 12 12 12 11 11 10 10 9 9 8 8 7 6 5 3
2 2 1 0 3 4 3 2 2 3 6 6 5 5 5 5 8 10 10 10 11 10 10 9 9 9 9 7 7 6 4 3 3 6 6 6 6 7 8 9 10 10 10 12 13 14 14 14 14 13 13 12 11 11 11 10 10 10 10 10 10 10 10 9 8 9 9 9 9 9 9 9 10 12 12 11 10 10 10 11 12 11 9 7 6 5
2 2 1 1 4 3 2 2 1 2 5 4 1 3 3 2 4 7 7 8 9 9 10 10 8 5 5 5 5 6 5 3 5 6 5 4 5 7 9 10 10 10 11 12 13 13 13 12 12 11 11 11 10 10 10 10 10 11 11 11 11 11 11 10 9 8 8 8 9 10 10 10 11 13 14 13 14 13 11 10 12 13 13 11 9 8
Wind_Direction
178 180 194 199 173 163 181 194 197 164 127 132 180 244 240 252 268 250 270 272 292 301 287 274 266 270 271 250 224 214 207 213 214 213 217 215 211 201 188 192 200 217 230 204 181 186 186 190 190 191 195 192 194 199 197 195 189 178 177 182 189 198 191 179 173 174 175 173 167 164 165 163 162 163 162 164 170 172 176 181 181 183 181 183 186 183
193 209 202 178 161 159 176 174 159 142 149 211 236 266 265 237 261 245 261 280 248 243 261 248 266 267 267 255 229 219 209 216 215 210 217 218 217 210 195 194 202 215 232 228 211 200 192 192 188 189 192 189 191 197 196 196 186 172 177 183 182 194 197 184 176 175 177 175 169 167 167 164 161 163 163 165 168 170 173 175 173 174 173 174 176 175
201 219 196 170 158 115 91 130 149 153 173 206 218 267 272 232 266 249 255 292 228 221 254 273 281 277 277 268 225 220 213 217 215 207 212 214 214 213 201 198 200 207 219 223 222 211 200 198 190 186 185 182 187 193 198 198 184 174 181 182 179 191 200 192 180 175 176 173 169 169 167 163 158 159 162 162 165 167 167 166 165 167 167 167 170 170
197 230 186 165 150 124 103 128 144 144 180 199 206 246 258 146 158 249 236 312 208 232 274 285 293 281 279 279 234 232 226 232 225 211 216 216 214 212 201 199 199 202 211 216 217 211 202 201 195 187 179 175 179 185 194 195 181 175 180 180 182 190 196 195 186 177 173 168 166 165 161 160 154 153 156 154 157 161 161 161 162 165 165 166 167 166
204 195 131 138 156 160 143 133 156 186 225 211 217 236 250 207 214 233 256 327 266 247 246 261 275 267 266 264 237 252 256 258 251 222 226 226 225 219 202 202 204 206 212 214 214 210 202 200 200 193 179 172 175 177 184 187 179 176 179 183 190 193 193 195 189 179 170 163 161 155 153 155 150 149 153 152 155 159 161 161 162 163 162 164 166 167
218 165 133 136 163 177 164 170 185 201 232 240 217 221 230 227 218 214 203 322 281 247 164 233 259 244 203 250 223 265 288 259 247 228 228 226 224 219 207 207 210 210 213 215 214 209 201 200 201 194 179 172 175 176 179 181 180 181 183 189 192 192 190 192 189 181 171 163 163 160 157 156 152 154 159 159 160 161 161 159 159 160 159 162 167 169
218 164 163 161 163 173 183 209 196 186 217 271 222 209 218 224 217 188 170 204 257 267 101 290 271 267 294 263 226 211 277 259 242 230 229 226 221 216 213 214 214 212 212 214 212 205 199 198 196 187 179 177 176 175 178 182 184 184 187 193 195 192 191 191 189 184 175 169 169 167 163 161 157 157 162 165 161 159 157 155 155 154 154 157 162 166
151 152 167 167 160 169 195 224 192 177 192 249 183 184 194 204 205 184 182 206 249 307 285 197 245 268 275 258 214 238 265 252 235 228 224 223 222 219 217 217 217 214 211 209 207 201 197 196 193 184 178 176 173 173 177 181 185 185 186 191 195 195 193 191 188 184 179 176 176 171 164 163 160 157 161 163 159 156 154 153 154 153 154 156 157 159
135 172 177 167 165 186 210 212 172 173 202 247 158 157 175 186 192 178 183 212 226 295 263 187 169 243 258 229 176 218 255 243 232 226 222 221 223 222 221 220 221 219 214 212 208 196 191 196 193 184 174 169 169 172 177 181 186 190 188 186 190 192 189 188 186 183 184 184 180 175 168 164 162 160 161 160 158 157 157 157 158 159 160 160 159 158
109 202 188 168 176 205 214 192 162 177 205 192 135 124 111 122 133 159 188 201 165 244 258 182 167 240 268 234 212 217 254 260 255 233 226 226 228 227 226 226 226 223 217 215 206 182 181 191 188 172 157 156 165 173 179 182 186 191 189 183 184 187 186 187 183 181 186 187 182 178 173 166 163 163 163 161 161 161 162 164 165 167 168 165 165 161
41 238 171 178 195 208 208 170 164 182 179 106 130 126 95 103 100 128 166 167 192 240 258 166 184 233 272 248 224 222 310 327 329 301 258 238 235 233 232 232 229 226 216 198 173 151 153 160 156 143 137 150 165 173 180 183 185 189 189 184 182 181 182 185 183 182 186 185 182 179 175 170 167 167 167 165 166 168 170 173 174 174 173 168 167 164
326 251 193 215 198 164 172 160 156 189 179 110 138 151 125 132 127 134 132 158 227 246 312 131 193 217 243 249 77 41 360 344 321 304 293 264 242 235 234 235 228 217 192 159 146 139 136 140 147 150 152 156 160 172 184 185 181 181 184 186 180 174 179 184 184 184 184 183 181 179 176 174 172 172 172 171 172 175 177 178 179 179 174 167 165 163
266 231 245 275 213 180 188 188 134 149 189 192 183 185 195 185 152 198 204 193 242 251 111 136 174 208 247 269 30 17 341 330 312 293 286 275 255 234 225 224 214 192 161 144 145 148 150 155 159 159 155 151 155 169 169 155 150 153 176 201 193 175 181 184 184 184 183 182 179 177 176 177 178 178 178 178 178 179 179 177 178 176 168 163 159 157
233 240 230 244 244 192 191 210 201 166 181 185 179 184 189 170 157 204 203 226 261 267 72 130 168 229 253 295 23 357 340 335 327 306 281 266 260 241 216 200 184 170 157 149 152 161 169 159 144 144 141 139 141 140 137 155 181 175 186 204 202 190 189 181 179 184 184 180 176 176 178 180 182 183 183 183 181 179 177 173 173 170 163 161 156 154
217 259 196 189 201 173 188 212 213 134 158 175 168 178 195 190 189 213 211 231 254 248 75 120 174 229 235 68 359 341 350 355 358 358 331 247 240 202 168 160 159 156 154 152 153 162 166 140 136 135 121 114 115 126 160 189 196 187 185 193 187 181 178 159 166 183 184 180 175 175 180 183 185 186 185 185 182 178 175 171 169 165 162 162 158 158
212 272 237 211 10 173 186 195 134 120 147 160 146 172 226 222 181 144 239 229 273 254 134 169 219 266 245 355 356 10 23 21 27 39 47 72 113 120 138 159 162 154 146 140 133 135 132 130 136 130 116 115 127 160 190 189 185 183 183 179 157 154 159 157 169 180 181 182 180 177 181 184 185 186 185 184 182 179 175 170 168 165 163 164 162 159
186 269 267 331 249 198 198 175 162 191 177 136 179 192 191 250 144 122 108 75 346 257 228 167 254 291 222 195 32 42 41 36 35 44 48 50 73 88 91 114 127 121 111 81 56 69 103 116 125 123 123 132 152 174 182 176 178 179 172 160 144 150 168 172 176 179 174 178 188 187 184 185 186 186 185 182 181 179 175 172 170 167 166 168 167 163
213 266 262 218 211 212 285 166 138 343 137 142 194 179 126 74 94 114 209 103 200 243 238 124 263 293 239 203 49 41 41 41 40 49 54 49 56 61 52 54 54 54 62 53 47 48 66 99 118 127 136 151 161 161 167 173 177 171 163 163 167 172 182 183 183 180 172 175 191 191 186 187 188 186 184 181 180 179 177 174 172 170 172 174 173 169
202 266 281 231 220 36 352 176 128 76 49 139 191 141 135 211 194 146 204 203 216 237 234 169 257 269 242 242 41 37 36 44 52 57 60 60 65 68 60 58 58 61 68 77 84 81 79 103 121 138 156 164 155 148 157 161 165 167 165 172 180 181 182 186 185 180 173 178 191 192 189 190 190 187 185 182 181 180 178 174 170 170 174 177 178 174
142 252 262 180 252 344 19 209 179 159 149 73 141 145 63 274 212 180 182 211 234 230 214 216 244 224 204 8 13 11 18 46 73 73 71 71 74 80 81 82 86 97 115 133 121 110 108 110 124 150 171 169 149 150 151 147 155 166 171 178 182 179 180 185 183 177 175 182 191 193 191 192 191 188 185 183 183 181 176 172 169 168 170 173 178 178
98 229 247 228 269 269 228 297 260 189 169 170 178 178 170 119 52 202 147 49 266 211 167 222 243 133 82 360 333 350 359 48 96 95 95 92 90 92 97 113 122 130 140 141 132 120 116 120 133 158 178 171 149 149 151 156 164 169 176 181 178 175 178 181 180 178 178 183 191 193 192 193 191 188 186 186 185 181 175 171 169 167 166 167 175 178
150 178 213 262 290 283 318 30 325 241 191 180 206 201 177 152 157 197 197 149 302 241 164 217 243 88 82 303 322 359 357 94 109 111 118 120 123 120 123 143 126 124 131 128 121 113 117 137 146 158 175 169 152 149 155 163 166 168 175 180 175 174 175 177 179 180 181 182 186 189 190 191 190 189 187 186 184 179 174 172 171 168 163 163 171 176
138 122 168 224 276 288 289 325 287 240 116 96 105 344 112 154 180 217 222 184 153 185 99 180 251 85 77 37 51 35 65 112 122 129 131 130 133 130 126 118 98 92 93 87 81 79 81 100 130 149 161 157 154 156 159 161 162 168 175 178 177 172 171 178 180 180 181 181 182 185 186 187 187 187 186 184 182 179 175 175 174 171 168 166 168 172
136 122 147 186 273 308 281 194 153 177 152 110 63 45 34 287 295 255 244 169 165 166 138 199 215 130 69 101 91 65 91 109 112 112 119 122 119 113 100 79 63 60 57 50 48 53 55 58 71 96 110 111 128 147 153 155 166 177 177 177 178 174 175 183 183 180 181 180 180 182 182 183 184 184 184 183 180 177 176 179 178 175 174 170 168 171
230 193 136 154 148 132 156 195 192 168 105 69 47 27 15 8 4 180 115 131 199 178 161 219 204 101 40 109 108 101 100 94 70 61 80 90 86 78 67 58 49 46 47 45 45 44 41 48 57 66 80 94 114 136 145 151 167 182 179 176 179 176 177 183 184 184 184 182 182 181 181 183 182 182 184 181 176 176 179 183 183 182 181 176 171 170
154 35 126 188 187 177 168 189 197 156 9 4 24 16 17 20 356 279 152 189 218 173 157 233 188 123 144 112 103 103 93 76 59 56 57 57 57 53 53 55 50 44 40 38 44 45 42 44 49 61 79 91 102 117 127 132 141 158 165 164 168 168 170 179 182 183 184 184 181 179 180 180 180 182 182 178 175 177 182 186 188 187 185 182 176 170
102 53 20 78 139 182 164 121 360 357 337 324 359 7 10 5 337 277 186 199 197 155 164 272 112 133 140 105 82 77 75 69 62 59 57 54 53 55 58 57 54 49 39 36 43 44 41 37 35 49 72 88 89 87 97 114 125 136 143 139 140 148 155 166 175 174 172 170 168 171 175 175 177 180 178 175 175 179 183 186 188 190 188 184 177 170
99 74 360 44 67 63 44 50 33 59 81 58 16 11 10 3 351 260 195 344 341 166 183 168 140 136 113 61 50 54 66 71 65 61 63 63 60 64 67 62 57 51 42 42 40 36 37 34 30 42 57 73 85 79 72 86 110 122 121 120 128 132 135 146 154 148 155 167 174 179 177 171 169 170 167 167 168 169 173 174 175 180 180 177 177 174
109 112 257 86 78 68 60 75 93 94 87 69 49 33 21 18 31 61 51 357 337 300 165 153 144 122 73 47 39 39 56 69 71 70 74 76 73 74 73 66 59 51 48 51 47 42 42 37 35 43 46 52 65 72 72 72 79 89 92 100 116 116 118 134 141 134 144 159 168 170 167 157 150 149 148 147 148 150 152 152 155 159 154 155 167 171
116 99 168 152 91 57 43 69 105 112 94 68 52 38 32 39 53 62 52 27 31 65 104 120 114 86 53 49 47 48 60 70 75 74 69 67 68 71 71 70 66 60 57 58 54 51 48 43 42 45 46 48 52 59 68 70 71 78 81 84 92 98 106 120 125 123 127 133 138 148 149 141 136 135 133 133 136 133 125 121 129 147 145 127 142 156
141 116 146 130 101 58 28 43 98 113 103 76 50 31 27 37 46 47 36 22 41 80 103 106 98 79 56 62 67 70 70 67 65 63 61 59 60 67 70 67 64 64 61 59 56 52 48 46 46 45 44 45 47 51 61 69 72 76 80 80 82 90 100 107 108 105 107 114 122 133 139 140 139 137 131 132 133 127 126 129 140 159 166 148 135 146
73 132 148 111 133 112 16 16 48 102 111 82 45 20 11 16 26 29 26 14 21 92 122 118 100 95 104 92 79 73 71 70 65 60 61 61 59 63 66 62 60 61 61 61 58 52 48 46 45 47 46 42 43 46 55 70 75 73 76 81 84 91 99 101 101 102 101 103 110 118 129 138 142 140 134 134 134 138 167 194 202 188 185 191 193 182
111 141 148 147 156 146 11 346 342 196 167 99 28 357 350 360 360 351 26 20 1 9 146 142 115 113 124 111 90 78 74 74 70 62 59 63 65 65 64 62 61 59 60 63 61 56 52 46 42 47 50 50 53 53 54 69 76 76 77 83 88 94 99 98 97 99 99 102 108 115 124 132 135 133 128 130 137 147 168 184 185 177 172 167 171 171
122 122 119 132 154 133 30 338 286 210 200 160 13 341 344 7 20 44 52 23 14 52 102 107 111 113 112 105 99 92 81 73 71 67 62 61 69 71 66 61 61 60 59 61 61 58 51 43 41 49 54 56 60 64 66 70 76 80 84 87 90 92 95 95 94 93 94 97 104 112 121 125 123 119 117 120 129 137 145 151 146 143 144 141 137 131
125 111 101 77 86 105 97 204 200 197 168 152 112 8 357 360 19 52 72 38 43 91 102 104 112 111 106 103 101 98 90 80 69 61 58 56 60 69 69 62 58 56 54 56 61 61 55 45 38 44 54 58 60 65 70 72 75 80 83 85 88 88 90 91 91 90 91 92 95 103 111 114 115 113 112 115 120 123 125 124 122 123 126 126 120 115
135 117 103 79 55 115 133 121 142 126 96 150 128 24 8 332 347 13 70 47 44 91 110 111 116 115 115 115 109 107 104 89 71 53 49 57 58 61 66 64 60 57 51 54 63 64 61 57 53 53 59 65 66 67 71 75 77 80 79 79 81 82 85 87 86 84 86 87 87 91 98 103 108 109 109 110 110 108 105 105 105 106 108 111 110 107
95 116 103 80 36 116 120 89 105 147 128 104 55 19 13 337 330 320 324 31 33 96 123 126 130 127 127 125 123 132 128 93 73 49 42 56 61 63 66 65 66 64 58 60 68 70 68 67 67 66 67 69 70 72 75 78 80 81 79 76 75 77 79 81 80 79 81 83 84 87 90 93 97 100 101 102 101 97 94 95 95 93 94 100 103 101
22 59 106 104 51 15 126 115 130 169 123 43 360 356 360 307 293 269 249 347 53 119 135 139 138 136 139 140 145 164 146 81 74 59 53 62 65 67 67 63 62 62 60 62 67 70 71 70 68 69 70 69 69 73 77 79 81 81 79 76 74 74 74 74 74 75 78 81 82 85 88 89 90 92 93 93 92 91 90 90 89 86 87 90 93 93
35 42 61 86 83 55 111 114 106 102 87 15 337 329 327 308 278 242 223 27 101 139 147 144 142 146 150 151 163 205 176 95 105 127 106 88 80 78 75 70 64 62 64 67 69 70 72 73 72 71 72 69 66 70 77 79 81 80 78 77 77 74 71 70 72 75 78 81 82 83 84 85 85 87 88 88 88 88 88 88 86 86 85 85 87 87
31 33 43 60 70 72 86 94 78 71 67 2 329 317 316 311 255 221 197 48 111 152 155 150 149 154 158 162 175 272 54 125 139 143 132 115 104 99 95 89 81 75 72 71 73 74 74 73 72 68 67 68 70 76 81 82 82 81 79 79 79 76 74 74 76 78 79 80 81 81 80 80 80 82 83 83 84 85 86 86 85 84 83 83 86 88
30 29 45 60 63 54 70 94 94 87 54 343 322 313 310 291 227 209 42 22 114 169 161 157 158 160 165 180 190 48 68 101 119 130 134 124 112 106 102 98 93 88 84 79 76 76 74 71 70 66 63 67 74 82 86 87 85 84 82 80 79 79 80 82 81 81 79 78 77 77 77 77 77 77 77 77 78 80 80 80 77 74 72 71 74 79
31 31 35 39 39 28 49 86 98 109 68 341 323 311 309 278 233 343 356 328 269 182 161 157 159 159 144 100 120 117 105 106 116 127 131 123 115 110 105 103 99 93 91 88 84 81 77 72 70 68 67 69 75 82 88 89 88 85 83 82 81 84 87 86 84 83 81 79 77 75 74 74 74 74 74 72 72 73 71 68 66 65 63 60 59 60
1 8 56 36 10 17 52 56 60 95 23 348 336 331 6 6 327 321 330 330 36 137 145 146 143 133 109 103 112 115 116 120 124 126 123 117 111 106 103 106 105 99 94 90 87 87 85 80 75 73 72 75 79 84 88 90 89 87 85 85 87 89 89 86 85 84 82 80 79 76 74 72 69 69 69 66 65 65 63 59 56 54 51 48 45 44
2 358 92 55 346 19 60 54 41 360 342 348 350 352 350 334 303 287 307 1 55 88 118 117 97 95 110 117 114 114 120 125 125 123 121 115 111 110 109 109 107 103 99 95 94 94 92 89 85 82 81 81 84 87 89 91 92 91 90 91 93 92 89 86 84 82 80 79 78 74 72 69 66 64 63 60 59 58 56 52 49 44 40 37 35 33
24 18 79 75 50 60 69 67 55 356 348 357 8 349 325 335 329 321 22 58 44 31 53 81 85 86 97 106 106 106 113 117 118 123 125 121 121 122 117 112 110 107 104 102 102 100 96 94 92 89 85 84 86 89 91 93 95 95 95 97 96 91 88 86 84 82 81 79 75 72 69 66 62 60 57 55 54 53 49 46 43 40 35 33 32 30
43 14 74 84 88 95 80 63 42 21 13 17 31 29 21 30 29 32 61 69 59 54 60 69 82 83 75 78 90 94 96 106 115 121 125 126 126 122 117 113 111 109 107 106 107 106 104 101 97 93 90 88 89 91 93 94 96 97 99 99 95 90 88 87 86 85 83 78 76 74 72 67 62 58 54 50 49 48 44 42 40 37 32 29 28 28
52 46 66 74 103 136 79 49 26 26 34 35 50 59 56 56 56 56 68 75 73 72 71 71 81 85 78 76 83 87 93 107 119 124 128 131 129 125 123 121 119 116 115 115 116 115 111 106 103 101 98 95 94 94 95 96 97 100 101 99 93 90 89 90 91 89 84 80 80 78 73 68 64 58 52 49 48 45 41 39 37 35 33 29 26 24
11 20 43 50 57 72 66 48 42 61 65 58 61 69 70 75 79 77 76 78 76 77 78 79 82 85 81 79 82 81 81 93 116 128 127 123 123 126 126 125 126 125 123 124 125 121 115 110 108 106 103 100 98 95 93 92 93 96 98 94 89 86 84 83 83 81 77 78 82 79 72 66 63 58 53 50 50 48 45 43 43 44 43 38 31 22
305 348 12 44 79 87 89 106 117 93 77 66 63 72 82 93 97 97 95 91 87 86 83 78 77 81 81 78 80 82 75 70 99 122 126 125 126 130 131 132 135 133 129 129 128 122 117 116 115 113 110 109 106 99 91 86 84 88 94 94 92 88 83 80 78 75 73 77 80 77 67 60 58 57 55 53 52 55 55 52 54 57 53 42 34 27
343 63 59 138 100 90 95 128 152 104 88 80 62 60 71 92 107 113 113 110 107 105 99 89 81 79 79 81 92 100 93 73 92 110 118 124 129 134 137 137 134 131 129 126 122 118 116 117 118 119 119 117 113 106 97 91 89 93 96 95 92 88 83 83 85 80 74 76 78 69 57 49 48 49 47 46 47 51 55 55 55 58 58 50 45 51
25 48 339 44 79 77 89 125 148 104 103 112 89 46 40 59 110 117 118 121 125 127 125 123 119 106 84 85 111 127 126 117 119 117 112 116 133 143 147 145 137 133 134 132 125 119 115 112 112 117 121 120 114 105 97 92 91 92 90 85 83 79 72 69 70 67 64 68 68 57 46 41 42 44 43 42 41 41 41 43 46 50 55 57 55 57